Weather History for KAEX - December, 2002

Change the Weather History Date:

Saturday, December 7, 2002

  Actual Average Record
Temperature  
Mean Temperature 40 °F 51 °F  
Max Temperature 51 °F 62 °F 85 °F (1924)
Min Temperature 28 °F 41 °F 17 °F (1950)
Degree Days  
Heating Degree Days 26 14  
Month to date heating degree days 95  
Since 1 July heating degree days 420  
Moisture  
Dew Point 33 °F    
Average Humidity 83    
Maximum Humidity 100    
Minimum Humidity 50    
Precipitation  
Precipitation 0.00 in 0.25 in 3.45 in (1916)
Month to date precipitation 1.80  
Year to date precipitation 51.60  
Snow  
Snow 0.00 in - 0.00 in ()
Month to date snowfall  
Since 1 July snowfall  
Snow Depth -    
Sea Level Pressure  
Sea Level Pressure 30.36 in    
Wind  
Wind Speed 1 mph (SE)    
Max Wind Speed 6 mph    
Max Gust Speed -    
Visibility 8 miles    
Events      
T = Trace of Precipitation, MM = Missing Value Source: NWS Daily Summary

Daily Weather History Graph

Daily Weather History Graph

Search for Another Location

Airport or City:

Trip Planner

Search our weather history database for the weather conditions in past years. The results will help you decide how hot, cold, wet, or windy it might be!

Date:

Astronomy

Dec. 07, 2002 Rise Set
Actual Time 6:56 AM CST 5:07 PM CST
Civil Twilight 6:29 AM CST 5:33 PM CST
Nautical Twilight 5:59 AM CST 6:04 PM CST
Astronomical Twilight 5:29 AM CST 6:33 PM CST
Moon 10:18 AM CST (12/7) 8:34 PM CST (12/7)
Length of Visible Light 11h 04m
Length of Day
10h 11m
Waxing Crescent, 14% of the Moon is Illuminated
Dec 7
Waxing Crescent
Dec 11
First Quarter
Dec 19
Full
Dec 26
Last Quarter
Jan 2
New

Hourly Weather History & Observations

Time (CST) Temp. Windchill Dew Point Humidity Pressure Visibility Wind Dir Wind Speed Gust Speed Precip Events Conditions
12:43 AM 30.2 °F - 30.2 °F 100% 30.36 in 1.8 mi Calm Calm - N/A   Clear
12:53 AM 30.9 °F - 30.9 °F 100% 30.38 in 1.2 mi Calm Calm - N/A   Clear
1:05 AM 30.2 °F - 30.2 °F 100% 30.36 in 7.0 mi Calm Calm - N/A   Clear
1:53 AM 30.9 °F - 30.0 °F 96% 30.38 in 7.0 mi Calm Calm - N/A   Clear
2:53 AM 28.9 °F 25.2 °F 28.0 °F 96% 30.37 in 7.0 mi ESE 3.5 mph - N/A   Clear
3:15 AM 30.2 °F - 30.2 °F 100% 30.35 in 3.0 mi Calm Calm - N/A   Partly Cloudy
3:53 AM 30.0 °F - 30.0 °F 100% 30.37 in 2.5 mi Calm Calm - N/A   Clear
4:01 AM 28.4 °F - 28.4 °F 100% 30.36 in 4.0 mi Calm Calm - N/A   Clear
4:53 AM 28.9 °F - 28.0 °F 96% 30.38 in 4.0 mi Calm Calm - N/A   Clear
5:53 AM 28.9 °F - 28.0 °F 96% 30.39 in 4.0 mi Calm Calm - N/A   Clear
6:53 AM 28.9 °F - 28.0 °F 96% 30.40 in 8.0 mi Calm Calm - N/A   Clear
7:53 AM 30.9 °F - 30.0 °F 96% 30.43 in 4.0 mi Calm Calm - N/A   Clear
8:53 AM 36.0 °F 33.3 °F 34.0 °F 93% 30.44 in 6.0 mi ESE 3.5 mph - N/A   Clear
9:53 AM 42.1 °F 39.2 °F 36.0 °F 79% 30.44 in 10.0 mi SE 4.6 mph - N/A   Clear
10:53 AM 46.0 °F 43.1 °F 33.1 °F 61% 30.41 in 10.0 mi SSE 5.8 mph - N/A   Clear
11:53 AM 48.0 °F - 32.0 °F 54% 30.38 in 10.0 mi Variable 3.5 mph - N/A   Clear
12:53 PM 48.9 °F - 33.1 °F 54% 30.35 in 10.0 mi SSE 4.6 mph - N/A   Clear
1:53 PM 51.1 °F - 33.1 °F 50% 30.31 in 10.0 mi Variable 3.5 mph - N/A   Clear
2:53 PM 51.1 °F - 34.0 °F 52% 30.31 in 10.0 mi Calm Calm - N/A   Clear
3:53 PM 50.0 °F - 35.1 °F 57% 30.29 in 10.0 mi SE 3.5 mph - N/A   Clear
4:53 PM 50.0 °F - 35.1 °F 57% 30.30 in 10.0 mi South 4.6 mph - N/A   Clear
5:53 PM 44.1 °F - 37.9 °F 79% 30.31 in 10.0 mi Calm Calm - N/A   Clear
6:53 PM 44.1 °F - 37.9 °F 79% 30.31 in 10.0 mi Calm Calm - N/A   Clear
7:53 PM 42.1 °F - 37.0 °F 82% 30.32 in 10.0 mi Calm Calm - N/A   Clear
8:53 PM 41.0 °F 39.0 °F 37.0 °F 86% 30.31 in 10.0 mi SE 3.5 mph - N/A   Clear
9:53 PM 39.9 °F - 37.0 °F 89% 30.32 in 10.0 mi Calm Calm - N/A   Clear
10:53 PM 39.9 °F - 37.0 °F 89% 30.31 in 10.0 mi Calm Calm - N/A   Clear
11:53 PM 39.9 °F - 37.0 °F 89% 30.31 in 10.0 mi Calm Calm - N/A   Clear